Regional Weather Roundup
Issued by NWS

Home | Current Version | Previous Version | Graphics & Text | Print | Product List | Glossary On
Versions: 1 2 3 4 5 6 7 8 9 10 11 12 13 14 15 16 17 18 19 20 21 22 23 24 25 26 27 28 29 30 31 32 33 34 35 36 37 38 39 40 41 42 43 44 45 46 47 48 49 50
000
ASUS44 KMEG 161200
RWRTN
TENNESSEE HOURLY STATE WEATHER ROUNDUP
NATIONAL WEATHER SERVICE MEMPHIS TN
600 AM CST SAT DEC 16 2017

TNZ002-004-019-021-049-052-054-088>092-161300-
WEST TENNESSEE

CITY           SKY/WX    TMP DP  RH WIND       PRES   REMARKS
MEMPHIS INTL   CLOUDY    34  27  75 S9        30.20R WCI  27
NWS MEMPHIS      N/A     36 N/A N/A MISG        N/A
JACKSON        CLOUDY    34  27  75 SW10      30.20R WCI  26
DYERSBURG      CLOUDY    33  26  75 S5        30.18R WCI  29
$$

TNZ008-025-027-028-033-062-065-066-161300-
NORTH MIDDLE TENNESSEE

CITY           SKY/WX    TMP DP  RH WIND       PRES   REMARKS
NASHVILLE      CLOUDY    29  23  78 S3        30.22R
CLARKSVILLE    CLEAR     32  24  72 S9        30.18R WCI  24
SMYRNA         CLOUDY    26  22  84 SE7       30.24S WCI  18
CROSSVILLE     CLOUDY    23  20  88 S5        30.20R WCI  17
$$

TNZ061-075-076-078-094-096-097-161300-
SOUTH MIDDLE TENNESSEE

CITY           SKY/WX    TMP DP  RH WIND       PRES   REMARKS
WINCHESTER     CLEAR     21  19  93 CALM      30.25R
$$

TNZ017-018-042-046-047-161300-
NORTHEAST TENNESSEE

CITY           SKY/WX    TMP DP  RH WIND       PRES   REMARKS
TRI CITIES     CLOUDY    22  20  92 CALM      30.22R
$$

TNZ012-013-036-069-073-074-161300-
CENTRAL EAST TENNESSEE

CITY           SKY/WX    TMP DP  RH WIND       PRES   REMARKS
KNOXVILLE      CLOUDY    24  23  96 CALM      30.25R
OAK RIDGE      CLOUDY    24  21  88 CALM      30.27R
$$

TNZ083-085-099-161300-
SOUTHEAST TENNESSEE

CITY           SKY/WX    TMP DP  RH WIND       PRES   REMARKS
CHATTANOOGA    CLOUDY    23  20  88 CALM      30.28R
$$

SKY/WX REPORTED AS FAIR MEANS FEW OR NO CLOUDS BELOW
12 THOUSAND FEET.





USA.gov is the U.S. government's official web portal to all federal, state and local government web resources and services.